Notices

What's New in latest Release from April 7th, 2021:

- Updated Glossary, including Speed of Maximum Gust, and Total Hourly Precipitation

- Updated national and regional climate services offices contacts and prices information

- Addition of station inventory lists for 1981-2010, 1971-2000, and 1961-1990 Normals.

If you haven't already, please take our survey and provide feedback about our website: https://eccc.sondage-survey.ca/f/LanguageSelection.aspx?s=442ca660-fcf1-47c0-95a9-59707d6fd709

Hourly Data Report for December 13, 2018

CARBERRY CS
MANITOBA
Current Station Operator: ECCC - MSC

49°54'20.900" N
99°21'26.800" W
383.50 m
5010547
71170
WZE

Download Data

Hourly Data (December 2018)
Hourly Data Report for December 13, 2018
TIME
LST
Temp Definition
°C
Dew Point Definition
°C
Rel Hum Definition
%
Precip. Amount Definition
mm

Wind Dir Definition
10's deg

Wind Spd Definition
km/h
Visibility Definition
km
Stn Press Definition
kPa
Hmdx Definition


Wind Chill Definition


Weather Definition


00:00 -0.2 -3.6 78 0.0 29 28   95.91   -7 LegendNANA
01:00 -1.1 -4.4 78 0.0 29 25   96.00   -7 LegendNANA
02:00 -2.1 -5.0 80 0.0 27 15   96.11   -7 LegendNANA
03:00 -2.7 -5.6 80 0.0 27 22   96.17   -9 LegendNANA
04:00 -2.7 -5.7 80 0.0 26 22   96.29   -9 LegendNANA
05:00 -2.9 -6.1 79 0.0 25 14   96.40   -8 LegendNANA
06:00 -4.2 -7.3 79 0.0 25 12   96.43   -9 LegendNANA
07:00 -5.6 -8.8 78 0.0 25 15   96.50   -11 LegendNANA
08:00 -6.0 -9.6 76 0.0 24 14   96.51   -12 LegendNANA
09:00 -6.7 -10.8 72 0.0 24 13   96.59   -12 LegendNANA
10:00 -6.3 -11.1 69 0.0 26 21   96.60   -13 LegendNANA
11:00 -4.6 -10.2 65 0.0 24 11   96.63   -9 LegendNANA
12:00 -3.7 -9.6 64 0.0 24 13   96.63   -9 LegendNANA
13:00 -3.0 -9.2 63 0.0 24 22   96.57   -9 LegendNANA
14:00 -2.9 -8.8 64 0.0 24 18   96.51   -9 LegendNANA
15:00 -3.0 -8.3 67 0.0 24 16   96.49   -8 LegendNANA
16:00 -1.9 -7.3 66 0.0 22 13   96.49   -6 LegendNANA
17:00 -2.7 -6.6 74 0.0 22 11   96.46   -7 LegendNANA
18:00 -2.5 -6.2 76 0.0 21 12   96.38   -7 LegendNANA
19:00 -0.3 -5.2 69 0.0 23 19   96.28   -5 LegendNANA
20:00 0.3 -5.1 67 0.0 23 20   96.25     LegendNANA
21:00 0.3 -4.9 68 0.0 24 25   96.22     LegendNANA
22:00 -0.7 -5.2 72 0.0 24 21   96.21   -6 LegendNANA
23:00 -1.3 -5.5 73 0.0 24 18   96.26   -7 LegendNANA

Notes on Data Quality.

Legend

  • E = Estimated
  • M = Missing
  • NA = Not Available*
  • [empty] = Indicates an unobserved value
Date modified: